Time,TemperatureF,DewpointF,PressureIn,WindDirection,WindDirectionDegrees,WindSpeedMPH,WindSpeedGustMPH,Humidity,HourlyPrecipIn,Conditions,Clouds,dailyrainin,SoftwareType,DateUTC
2013-06-18 00:02:00,63.8,51.0,29.85,ENE,75,0.0,0.0,63,0.00,,CLR,0.00,VWS V14.01,2013-06-18 07:02:00,
2013-06-18 00:08:00,63.8,51.4,29.85,ENE,75,0.0,0.0,64,0.00,,CLR,0.00,VWS V14.01,2013-06-18 07:08:00,
2013-06-18 00:13:00,63.7,51.3,29.85,ENE,75,0.0,0.0,64,0.00,,CLR,0.00,VWS V14.01,2013-06-18 07:13:00,
2013-06-18 00:19:00,63.5,51.5,29.85,ENE,75,0.0,0.0,65,0.00,,CLR,0.00,VWS V14.01,2013-06-18 07:19:00,
2013-06-18 00:24:00,63.5,51.5,29.85,ENE,75,0.0,0.0,65,0.00,,CLR,0.00,VWS V14.01,2013-06-18 07:24:00,
2013-06-18 00:30:00,63.5,52.3,29.85,ENE,75,0.0,0.0,67,0.00,,CLR,0.00,VWS V14.01,2013-06-18 07:30:00,
2013-06-18 00:35:00,63.3,52.2,29.83,ENE,75,0.0,0.0,67,0.00,,CLR,0.00,VWS V14.01,2013-06-18 07:35:00,
2013-06-18 00:40:00,63.1,52.4,29.83,ENE,75,0.0,0.0,68,0.00,,CLR,0.00,VWS V14.01,2013-06-18 07:40:00,
2013-06-18 00:46:00,62.9,52.2,29.83,ENE,75,0.0,0.0,68,0.00,,CLR,0.00,VWS V14.01,2013-06-18 07:46:00,
2013-06-18 00:51:00,62.8,52.1,29.83,ENE,75,0.0,0.0,68,0.00,,CLR,0.00,VWS V14.01,2013-06-18 07:51:00,
2013-06-18 00:57:00,62.6,51.9,29.83,ENE,75,0.0,0.0,68,0.00,,CLR,0.00,VWS V14.01,2013-06-18 07:57:00,
2013-06-18 01:02:00,62.4,51.7,29.83,ENE,75,0.0,0.0,68,0.00,,CLR,0.00,VWS V14.01,2013-06-18 08:02:00,
2013-06-18 01:08:00,62.4,51.7,29.83,ENE,75,0.0,0.0,68,0.00,,CLR,0.00,VWS V14.01,2013-06-18 08:08:00,
2013-06-18 01:14:00,62.2,51.9,29.83,ENE,75,0.0,0.0,69,0.00,,CLR,0.00,VWS V14.01,2013-06-18 08:14:00,
2013-06-18 01:19:00,62.2,51.9,29.83,ENE,75,0.0,0.0,69,0.00,,CLR,0.00,VWS V14.01,2013-06-18 08:19:00,
2013-06-18 01:25:00,62.2,51.9,29.83,ENE,75,0.0,0.0,69,0.00,,CLR,0.00,VWS V14.01,2013-06-18 08:25:00,
2013-06-18 01:30:00,62.0,51.8,29.83,ENE,75,0.0,0.0,69,0.00,,CLR,0.00,VWS V14.01,2013-06-18 08:30:00,
2013-06-18 01:36:00,61.9,51.6,29.83,ENE,75,0.0,0.0,69,0.00,,CLR,0.00,VWS V14.01,2013-06-18 08:36:00,
2013-06-18 01:42:00,61.9,51.6,29.83,ENE,75,0.0,0.0,69,0.00,,CLR,0.00,VWS V14.01,2013-06-18 08:42:00,
2013-06-18 01:47:00,62.0,51.8,29.83,ENE,75,0.0,0.0,69,0.00,,CLR,0.00,VWS V14.01,2013-06-18 08:47:00,
2013-06-18 01:53:00,61.9,51.6,29.83,ENE,75,0.0,0.0,69,0.00,,CLR,0.00,VWS V14.01,2013-06-18 08:53:00,
2013-06-18 01:58:00,61.9,51.6,29.83,ENE,75,0.0,0.0,69,0.00,,CLR,0.00,VWS V14.01,2013-06-18 08:58:00,
2013-06-18 02:04:00,61.9,51.6,29.83,ENE,75,0.0,0.0,69,0.00,,CLR,0.00,VWS V14.01,2013-06-18 09:04:00,
2013-06-18 02:10:00,61.9,52.0,29.83,ENE,75,0.0,0.0,70,0.00,,CLR,0.00,VWS V14.01,2013-06-18 09:10:00,
2013-06-18 02:15:00,61.7,51.8,29.83,ENE,75,0.0,0.0,70,0.00,,CLR,0.00,VWS V14.01,2013-06-18 09:15:00,
2013-06-18 02:21:00,61.7,51.8,29.83,ENE,75,0.0,0.0,70,0.00,,CLR,0.00,VWS V14.01,2013-06-18 09:21:00,
2013-06-18 02:26:00,61.7,52.2,29.83,ENE,75,0.0,0.0,71,0.00,,CLR,0.00,VWS V14.01,2013-06-18 09:26:00,
2013-06-18 02:33:00,61.5,52.0,29.83,ENE,75,0.0,0.0,71,0.00,,,0.00,VWS V14.01,2013-06-18 09:33:00,
2013-06-18 02:39:00,61.5,52.4,29.83,ENE,75,0.0,0.0,72,0.00,,CLR,0.00,VWS V14.01,2013-06-18 09:39:00,
2013-06-18 02:44:00,61.5,52.4,29.83,ENE,75,0.0,0.0,72,0.00,,CLR,0.00,VWS V14.01,2013-06-18 09:44:00,
2013-06-18 02:49:00,61.3,52.2,29.83,ENE,75,0.0,0.0,72,0.00,,CLR,0.00,VWS V14.01,2013-06-18 09:49:00,
2013-06-18 02:55:00,61.3,52.2,29.83,ENE,75,0.0,0.0,72,0.00,,CLR,0.00,VWS V14.01,2013-06-18 09:55:00,
2013-06-18 03:00:00,61.3,52.2,29.83,ENE,75,0.0,0.0,72,0.00,,BKN012,0.00,VWS V14.01,2013-06-18 10:00:00,
2013-06-18 03:06:00,61.1,52.0,29.83,ENE,75,0.0,0.0,72,0.00,,BKN012,0.00,VWS V14.01,2013-06-18 10:06:00,
2013-06-18 03:11:00,61.3,52.6,29.83,ENE,75,0.0,0.0,73,0.00,,BKN012,0.00,VWS V14.01,2013-06-18 10:11:00,
2013-06-18 03:17:00,61.9,54.2,29.83,ENE,75,0.0,2.7,76,0.00,,BKN012,0.00,VWS V14.01,2013-06-18 10:17:00,
2013-06-18 03:23:00,61.9,54.6,29.80,ENE,75,2.7,3.1,77,0.00,,BKN012,0.00,VWS V14.01,2013-06-18 10:23:00,
2013-06-18 03:28:00,62.0,55.1,29.80,ENE,75,0.0,0.0,78,0.00,,BKN012,0.00,VWS V14.01,2013-06-18 10:28:00,
2013-06-18 03:34:00,61.9,54.9,29.83,ENE,75,0.0,0.0,78,0.00,,BKN012,0.00,VWS V14.01,2013-06-18 10:34:00,
2013-06-18 03:39:00,62.0,55.5,29.83,ENE,75,0.0,2.2,79,0.00,,OVC010,0.00,VWS V14.01,2013-06-18 10:39:00,
2013-06-18 03:45:00,62.2,55.6,29.83,SE,131,2.2,4.5,79,0.00,,OVC010,0.00,VWS V14.01,2013-06-18 10:45:00,
2013-06-18 03:50:00,62.2,55.3,29.83,SE,131,3.6,4.0,78,0.00,,OVC010,0.00,VWS V14.01,2013-06-18 10:50:00,
2013-06-18 03:56:00,62.2,55.3,29.83,SE,131,4.9,5.4,78,0.00,,OVC010,0.00,VWS V14.01,2013-06-18 10:56:00,
2013-06-18 04:02:00,62.2,54.9,29.83,SE,131,4.9,5.8,77,0.00,,OVC010,0.00,VWS V14.01,2013-06-18 11:02:00,
2013-06-18 04:07:00,62.2,54.6,29.83,SE,131,2.7,2.7,76,0.00,,OVC010,0.00,VWS V14.01,2013-06-18 11:07:00,
2013-06-18 04:13:00,62.4,54.8,29.83,SE,131,4.0,5.4,76,0.00,,OVC010,0.00,VWS V14.01,2013-06-18 11:13:00,
2013-06-18 04:18:00,62.2,54.6,29.83,SE,131,0.0,0.0,76,0.00,,OVC010,0.00,VWS V14.01,2013-06-18 11:18:00,
2013-06-18 04:23:00,62.2,54.6,29.83,SE,131,3.6,5.4,76,0.00,,OVC010,0.00,VWS V14.01,2013-06-18 11:23:00,
2013-06-18 04:28:00,62.4,54.4,29.83,SE,131,0.0,2.7,75,0.00,,OVC010,0.00,VWS V14.01,2013-06-18 11:28:00,
2013-06-18 04:34:00,62.4,54.4,29.83,SE,131,2.2,3.1,75,0.00,,OVC010,0.00,VWS V14.01,2013-06-18 11:34:00,
2013-06-18 04:40:00,62.4,54.4,29.83,SE,131,0.0,0.0,75,0.00,,OVC010,0.00,VWS V14.01,2013-06-18 11:40:00,
2013-06-18 04:45:00,62.4,54.0,29.83,SE,131,4.0,4.0,74,0.00,,OVC010,0.00,VWS V14.01,2013-06-18 11:45:00,
2013-06-18 04:51:00,62.4,54.0,29.83,SE,131,3.1,3.6,74,0.00,,OVC010,0.00,VWS V14.01,2013-06-18 11:51:00,
2013-06-18 04:56:00,62.4,54.0,29.83,SE,131,3.1,3.6,74,0.00,,OVC010,0.00,VWS V14.01,2013-06-18 11:56:00,
2013-06-18 05:01:00,62.4,54.0,29.83,SE,131,0.0,0.0,74,0.00,,OVC010,0.00,VWS V14.01,2013-06-18 12:01:00,
2013-06-18 05:06:00,62.4,54.0,29.83,SE,131,3.6,3.6,74,0.00,,OVC010,0.00,VWS V14.01,2013-06-18 12:06:00,
2013-06-18 05:12:00,62.2,54.2,29.83,SE,131,0.0,0.0,75,0.00,,OVC010,0.00,VWS V14.01,2013-06-18 12:12:00,
2013-06-18 05:17:00,62.2,54.2,29.83,SE,131,4.0,4.0,75,0.00,,OVC010,0.00,VWS V14.01,2013-06-18 12:17:00,
2013-06-18 05:23:00,62.4,54.0,29.83,SE,131,0.0,2.2,74,0.00,,OVC010,0.00,VWS V14.01,2013-06-18 12:23:00,
2013-06-18 05:28:00,62.4,54.0,29.83,SE,131,2.7,2.7,74,0.00,,OVC010,0.00,VWS V14.01,2013-06-18 12:28:00,
2013-06-18 05:34:00,62.4,54.0,29.85,SE,131,0.0,3.1,74,0.00,,OVC010,0.00,VWS V14.01,2013-06-18 12:34:00,
2013-06-18 05:39:00,62.4,54.0,29.85,SE,131,2.7,2.7,74,0.00,,OVC008,0.00,VWS V14.01,2013-06-18 12:39:00,
2013-06-18 05:45:00,62.4,54.0,29.85,SE,132,3.6,5.4,74,0.00,,OVC008,0.00,VWS V14.01,2013-06-18 12:45:00,
2013-06-18 05:50:00,62.2,53.8,29.85,ESE,120,3.1,5.4,74,0.00,,OVC008,0.00,VWS V14.01,2013-06-18 12:50:00,
2013-06-18 05:55:00,62.2,53.8,29.85,SE,131,2.7,4.0,74,0.00,,OVC008,0.00,VWS V14.01,2013-06-18 12:55:00,
2013-06-18 06:01:00,62.4,54.0,29.85,SE,132,0.0,2.7,74,0.00,,OVC008,0.00,VWS V14.01,2013-06-18 13:01:00,
2013-06-18 06:06:00,62.4,54.0,29.85,SE,132,3.1,3.6,74,0.00,,OVC008,0.00,VWS V14.01,2013-06-18 13:06:00,
2013-06-18 06:12:00,62.4,54.0,29.85,ESE,106,0.0,2.7,74,0.00,,OVC008,0.00,VWS V14.01,2013-06-18 13:12:00,
2013-06-18 06:17:00,62.6,53.8,29.85,ESE,106,3.6,3.6,73,0.00,,OVC008,0.00,VWS V14.01,2013-06-18 13:17:00,
2013-06-18 06:23:00,62.6,53.8,29.85,ESE,105,0.0,0.0,73,0.00,,OVC008,0.00,VWS V14.01,2013-06-18 13:23:00,
2013-06-18 06:28:00,62.6,53.8,29.85,ESE,106,0.0,0.0,73,0.00,,OVC008,0.00,VWS V14.01,2013-06-18 13:28:00,
2013-06-18 06:34:00,62.6,53.4,29.85,ESE,119,4.9,5.4,72,0.00,,OVC008,0.00,VWS V14.01,2013-06-18 13:34:00,
2013-06-18 06:39:00,62.6,53.4,29.85,ESE,119,0.0,2.2,72,0.00,,OVC008,0.00,VWS V14.01,2013-06-18 13:39:00,
2013-06-18 06:44:00,62.8,53.6,29.85,ESE,119,0.0,0.0,72,0.00,,OVC008,0.00,VWS V14.01,2013-06-18 13:44:00,
2013-06-18 06:50:00,62.8,53.6,29.85,ESE,119,3.6,3.6,72,0.00,,OVC008,0.00,VWS V14.01,2013-06-18 13:50:00,
2013-06-18 06:55:00,62.8,53.2,29.85,ESE,119,0.0,2.2,71,0.00,,OVC008,0.00,VWS V14.01,2013-06-18 13:55:00,
2013-06-18 07:01:00,62.9,53.8,29.85,ESE,119,0.0,3.1,72,0.00,,OVC008,0.00,VWS V14.01,2013-06-18 14:01:00,
2013-06-18 07:06:00,62.9,53.4,29.85,ESE,119,3.6,3.6,71,0.00,,OVC008,0.00,VWS V14.01,2013-06-18 14:06:00,
2013-06-18 07:12:00,62.9,53.4,29.85,ESE,119,0.0,0.0,71,0.00,,OVC008,0.00,VWS V14.01,2013-06-18 14:12:00,
2013-06-18 07:18:00,62.8,53.2,29.85,ESE,119,0.0,2.2,71,0.00,,OVC008,0.00,VWS V14.01,2013-06-18 14:18:00,
2013-06-18 07:23:00,62.8,52.8,29.85,ESE,119,3.6,4.0,70,0.00,,OVC008,0.00,VWS V14.01,2013-06-18 14:23:00,
2013-06-18 07:28:00,62.8,52.8,29.85,ESE,119,0.0,0.0,70,0.00,,OVC008,0.00,VWS V14.01,2013-06-18 14:28:00,
2013-06-18 07:33:00,63.1,53.2,29.85,ESE,119,0.0,0.0,70,0.00,,OVC008,0.00,VWS V14.01,2013-06-18 14:33:00,
2013-06-18 07:38:00,63.3,53.4,29.85,ESE,119,0.0,0.0,70,0.00,,OVC008,0.00,VWS V14.01,2013-06-18 14:38:00,
2013-06-18 07:44:00,63.5,53.5,29.85,ESE,119,0.0,0.0,70,0.00,,OVC008,0.00,VWS V14.01,2013-06-18 14:44:00,
2013-06-18 07:49:00,63.7,53.7,29.85,ESE,119,0.0,0.0,70,0.00,,OVC008,0.00,VWS V14.01,2013-06-18 14:49:00,
2013-06-18 07:55:00,63.7,53.3,29.85,ESE,119,0.0,0.0,69,0.00,,OVC008,0.00,VWS V14.01,2013-06-18 14:55:00,
2013-06-18 08:01:00,63.7,52.9,29.85,ESE,119,4.0,4.0,68,0.00,,OVC008,0.00,VWS V14.01,2013-06-18 15:01:00,
2013-06-18 08:06:00,63.8,53.1,29.85,ESE,119,2.2,3.1,68,0.00,,OVC008,0.00,VWS V14.01,2013-06-18 15:06:00,
2013-06-18 08:12:00,64.0,53.3,29.85,ESE,119,2.2,3.6,68,0.00,,OVC008,0.00,VWS V14.01,2013-06-18 15:12:00,
2013-06-18 08:18:00,64.0,52.5,29.85,SSW,194,0.0,0.0,66,0.00,,OVC008,0.00,VWS V14.01,2013-06-18 15:18:00,
2013-06-18 08:23:00,64.0,52.0,29.88,SSW,212,2.7,4.0,65,0.00,,OVC008,0.00,VWS V14.01,2013-06-18 15:23:00,
2013-06-18 08:29:00,64.0,51.6,29.88,SW,224,3.6,3.6,64,0.00,,OVC008,0.00,VWS V14.01,2013-06-18 15:29:00,
2013-06-18 08:34:00,64.0,51.2,29.88,SW,220,3.1,3.6,63,0.00,,OVC008,0.00,VWS V14.01,2013-06-18 15:34:00,
2013-06-18 08:40:00,64.0,50.3,29.88,West,262,3.1,4.9,61,0.00,,,0.00,VWS V14.01,2013-06-18 15:40:00,
2013-06-18 08:46:00,64.4,51.1,29.88,West,281,3.1,3.6,62,0.00,,,0.00,VWS V14.01,2013-06-18 15:46:00,
2013-06-18 08:51:00,64.6,50.8,29.88,WSW,240,2.7,2.7,61,0.00,,,0.00,VWS V14.01,2013-06-18 15:51:00,
2013-06-18 08:56:00,65.1,51.3,29.88,South,183,4.9,4.9,61,0.00,,,0.00,VWS V14.01,2013-06-18 15:56:00,
2013-06-18 09:01:00,65.1,50.4,29.88,SSE,163,3.1,3.1,59,0.00,,,0.00,VWS V14.01,2013-06-18 16:01:00,
2013-06-18 09:06:00,65.6,50.0,29.88,West,271,0.0,2.7,57,0.00,,,0.00,VWS V14.01,2013-06-18 16:06:00,
2013-06-18 09:11:00,66.0,48.9,29.88,WSW,258,4.9,5.4,54,0.00,,,0.00,VWS V14.01,2013-06-18 16:11:00,
2013-06-18 09:17:00,66.2,47.5,29.88,SSW,203,0.0,0.0,51,0.00,,,0.00,VWS V14.01,2013-06-18 16:17:00,
2013-06-18 09:22:00,67.1,48.4,29.88,ENE,72,0.0,0.0,51,0.00,,,0.00,VWS V14.01,2013-06-18 16:22:00,
2013-06-18 09:28:00,67.6,47.2,29.88,South,174,0.0,0.0,48,0.00,,,0.00,VWS V14.01,2013-06-18 16:28:00,
2013-06-18 09:33:00,68.2,46.0,29.88,SSW,213,4.9,4.9,45,0.00,,,0.00,VWS V14.01,2013-06-18 16:33:00,
2013-06-18 09:39:00,68.3,46.2,29.88,South,190,3.1,3.1,45,0.00,,OVC012,0.00,VWS V14.01,2013-06-18 16:39:00,
2013-06-18 09:45:00,68.3,45.0,29.88,SE,130,6.7,6.7,43,0.00,,OVC012,0.00,VWS V14.01,2013-06-18 16:45:00,
2013-06-18 09:50:00,68.9,45.5,29.88,SE,131,2.7,3.1,43,0.00,,OVC012,0.00,VWS V14.01,2013-06-18 16:50:00,
2013-06-18 09:56:00,69.6,46.1,29.88,SE,130,0.0,2.7,43,0.00,,OVC012,0.00,VWS V14.01,2013-06-18 16:56:00,
2013-06-18 10:01:00,70.1,46.0,29.88,South,189,4.0,4.9,42,0.00,,OVC012,0.00,VWS V14.01,2013-06-18 17:01:00,
2013-06-18 10:07:00,70.7,44.5,29.88,SSW,202,4.0,4.0,39,0.00,,OVC012,0.00,VWS V14.01,2013-06-18 17:07:00,
2013-06-18 10:12:00,71.0,44.2,29.88,SE,125,3.6,3.6,38,0.00,,OVC012,0.00,VWS V14.01,2013-06-18 17:12:00,
2013-06-18 10:17:00,71.4,43.8,29.88,SE,131,2.2,4.5,37,0.00,,OVC012,0.00,VWS V14.01,2013-06-18 17:17:00,
2013-06-18 10:22:00,72.3,44.6,29.88,SSE,147,3.6,3.6,37,0.00,,OVC012,0.00,VWS V14.01,2013-06-18 17:22:00,
2013-06-18 10:27:00,73.2,43.9,29.88,South,185,3.6,5.4,35,0.00,,OVC012,0.00,VWS V14.01,2013-06-18 17:27:00,
2013-06-18 10:32:00,73.0,43.0,29.88,SSW,213,2.7,5.4,34,0.00,,OVC012,0.00,VWS V14.01,2013-06-18 17:32:00,
2013-06-18 10:37:00,73.2,42.4,29.88,SSW,199,3.1,5.4,33,0.00,,FEW016,0.00,VWS V14.01,2013-06-18 17:37:00,
2013-06-18 10:42:00,73.2,42.4,29.88,SW,228,4.0,4.0,33,0.00,,FEW016,0.00,VWS V14.01,2013-06-18 17:42:00,
2013-06-18 10:48:00,73.6,42.7,29.88,SSE,161,2.7,4.9,33,0.00,,FEW016,0.00,VWS V14.01,2013-06-18 17:48:00,
2013-06-18 10:53:00,73.2,42.4,29.88,ESE,114,2.2,3.1,33,0.00,,FEW016,0.00,VWS V14.01,2013-06-18 17:53:00,
2013-06-18 10:59:00,74.1,42.4,29.88,SSW,209,5.4,6.3,32,0.00,,FEW016,0.00,VWS V14.01,2013-06-18 17:59:00,
2013-06-18 11:04:00,74.3,42.5,29.88,SSW,196,2.7,3.6,32,0.00,,FEW016,0.00,VWS V14.01,2013-06-18 18:04:00,
2013-06-18 11:09:00,74.1,42.4,29.88,East,99,8.3,8.3,32,0.00,,FEW016,0.00,VWS V14.01,2013-06-18 18:09:00,
2013-06-18 11:14:00,73.7,43.7,29.88,SSW,193,4.9,4.9,34,0.00,,FEW016,0.00,VWS V14.01,2013-06-18 18:14:00,
2013-06-18 11:20:00,75.0,42.3,29.88,ESE,113,3.6,6.3,31,0.00,,FEW016,0.00,VWS V14.01,2013-06-18 18:20:00,
2013-06-18 11:25:00,75.5,42.8,29.88,SW,216,4.9,7.6,31,0.00,,FEW016,0.00,VWS V14.01,2013-06-18 18:25:00,
2013-06-18 11:31:00,75.4,42.7,29.88,SSE,159,3.6,7.2,31,0.00,,FEW016,0.00,VWS V14.01,2013-06-18 18:31:00,
2013-06-18 11:37:00,75.5,42.0,29.88,SE,144,5.8,8.3,30,0.00,,CLR,0.00,VWS V14.01,2013-06-18 18:37:00,
2013-06-18 11:42:00,76.1,42.4,29.88,SSW,203,5.8,5.8,30,0.00,,CLR,0.00,VWS V14.01,2013-06-18 18:42:00,
2013-06-18 11:47:00,75.2,41.7,29.88,North,353,6.3,8.7,30,0.00,,CLR,0.00,VWS V14.01,2013-06-18 18:47:00,
2013-06-18 11:53:00,76.6,42.9,29.88,SSE,168,5.8,5.8,30,0.00,,CLR,0.00,VWS V14.01,2013-06-18 18:53:00,
2013-06-18 11:59:00,76.8,42.2,29.88,SSW,207,5.4,5.4,29,0.00,,CLR,0.00,VWS V14.01,2013-06-18 18:59:00,
2013-06-18 12:04:00,76.8,41.3,29.85,SW,225,4.0,5.4,28,0.00,,CLR,0.00,VWS V14.01,2013-06-18 19:04:00,
2013-06-18 12:10:00,77.3,41.7,29.85,SSW,195,6.3,6.3,28,0.00,,CLR,0.00,VWS V14.01,2013-06-18 19:10:00,
2013-06-18 12:16:00,77.3,40.8,29.85,South,172,3.1,6.3,27,0.00,,CLR,0.00,VWS V14.01,2013-06-18 19:16:00,
2013-06-18 12:21:00,76.4,39.0,29.85,SSE,166,6.3,6.3,26,0.00,,CLR,0.00,VWS V14.01,2013-06-18 19:21:00,
2013-06-18 12:27:00,77.0,40.5,29.85,SSW,195,3.6,6.3,27,0.00,,CLR,0.00,VWS V14.01,2013-06-18 19:27:00,
2013-06-18 12:33:00,77.9,41.2,29.85,SSE,150,3.1,4.9,27,0.00,,CLR,0.00,VWS V14.01,2013-06-18 19:33:00,
2013-06-18 12:38:00,78.2,39.6,29.85,South,189,2.7,4.0,25,0.00,,CLR,0.00,VWS V14.01,2013-06-18 19:38:00,
2013-06-18 12:44:00,77.0,40.5,29.85,SE,130,5.8,8.3,27,0.00,,CLR,0.00,VWS V14.01,2013-06-18 19:44:00,
2013-06-18 12:49:00,78.2,39.6,29.85,SSE,166,3.6,4.0,25,0.00,,CLR,0.00,VWS V14.01,2013-06-18 19:49:00,
2013-06-18 12:55:00,78.6,38.8,29.85,SSW,205,3.6,6.3,24,0.00,,CLR,0.00,VWS V14.01,2013-06-18 19:55:00,
2013-06-18 13:00:00,78.6,38.8,29.85,SW,216,5.8,6.3,24,0.00,,CLR,0.00,VWS V14.01,2013-06-18 20:00:00,
2013-06-18 13:06:00,78.4,39.7,29.85,SSW,202,8.3,8.3,25,0.00,,CLR,0.00,VWS V14.01,2013-06-18 20:06:00,
2013-06-18 13:11:00,78.8,39.0,29.85,SSW,201,6.3,6.3,24,0.00,,CLR,0.00,VWS V14.01,2013-06-18 20:11:00,
2013-06-18 13:16:00,78.2,38.5,29.85,SSE,151,4.9,7.6,24,0.00,,CLR,0.00,VWS V14.01,2013-06-18 20:16:00,
2013-06-18 13:22:00,78.6,39.9,29.85,South,175,4.0,6.7,25,0.00,,CLR,0.00,VWS V14.01,2013-06-18 20:22:00,
2013-06-18 13:27:00,77.7,39.1,29.85,SE,130,3.6,8.7,25,0.00,,CLR,0.00,VWS V14.01,2013-06-18 20:27:00,
2013-06-18 13:33:00,78.2,39.6,29.85,SSW,197,8.1,8.1,25,0.00,,CLR,0.00,VWS V14.01,2013-06-18 20:33:00,
2013-06-18 13:38:00,77.5,39.0,29.85,SSW,209,7.6,8.1,25,0.00,,CLR,0.00,VWS V14.01,2013-06-18 20:38:00,
2013-06-18 13:44:00,77.3,40.8,29.85,SSE,155,4.5,5.4,27,0.00,,CLR,0.00,VWS V14.01,2013-06-18 20:44:00,
2013-06-18 13:50:00,77.7,40.1,29.85,SSW,198,2.7,5.8,26,0.00,,CLR,0.00,VWS V14.01,2013-06-18 20:50:00,
2013-06-18 13:55:00,77.7,40.1,29.85,South,172,2.7,4.0,26,0.00,,CLR,0.00,VWS V14.01,2013-06-18 20:55:00,
2013-06-18 14:00:00,77.9,40.3,29.85,WSW,245,6.7,6.7,26,0.00,,CLR,0.00,VWS V14.01,2013-06-18 21:00:00,
2013-06-18 14:05:00,77.9,41.2,29.83,SSE,163,4.0,5.4,27,0.00,,CLR,0.00,VWS V14.01,2013-06-18 21:05:00,
2013-06-18 14:11:00,77.7,41.1,29.83,WNW,289,5.4,5.4,27,0.00,,CLR,0.00,VWS V14.01,2013-06-18 21:11:00,
2013-06-18 14:16:00,77.9,41.2,29.83,SSW,194,5.8,6.3,27,0.00,,CLR,0.00,VWS V14.01,2013-06-18 21:16:00,
2013-06-18 14:22:00,78.1,40.4,29.83,South,173,8.1,8.3,26,0.00,,CLR,0.00,VWS V14.01,2013-06-18 21:22:00,
2013-06-18 14:27:00,77.5,42.8,29.83,SW,227,2.7,6.3,29,0.00,,CLR,0.00,VWS V14.01,2013-06-18 21:27:00,
2013-06-18 14:33:00,78.2,41.5,29.83,SSW,194,5.4,5.8,27,0.00,,CLR,0.00,VWS V14.01,2013-06-18 21:33:00,
2013-06-18 14:38:00,77.5,40.9,29.83,SSW,209,5.4,6.3,27,0.00,,CLR,0.00,VWS V14.01,2013-06-18 21:38:00,
2013-06-18 14:43:00,78.2,43.4,29.83,SSE,157,2.7,5.4,29,0.00,,CLR,0.00,VWS V14.01,2013-06-18 21:43:00,
2013-06-18 14:48:00,77.5,42.8,29.83,SE,128,8.3,9.2,29,0.00,,CLR,0.00,VWS V14.01,2013-06-18 21:48:00,
2013-06-18 14:54:00,77.7,42.0,29.83,SSW,196,4.0,7.2,28,0.00,,CLR,0.00,VWS V14.01,2013-06-18 21:54:00,
2013-06-18 15:00:00,78.1,41.4,29.83,SSW,194,3.1,6.3,27,0.00,,CLR,0.00,VWS V14.01,2013-06-18 22:00:00,
2013-06-18 15:05:00,78.8,42.0,29.83,SW,215,3.6,4.0,27,0.00,,CLR,0.00,VWS V14.01,2013-06-18 22:05:00,
2013-06-18 15:10:00,78.2,41.5,29.83,SSE,151,3.6,10.1,27,0.00,,CLR,0.00,VWS V14.01,2013-06-18 22:10:00,
2013-06-18 15:15:00,78.6,41.9,29.83,SSW,204,4.0,8.3,27,0.00,,CLR,0.00,VWS V14.01,2013-06-18 22:15:00,
2013-06-18 15:21:00,78.6,40.9,29.83,South,187,3.6,5.4,26,0.00,,CLR,0.00,VWS V14.01,2013-06-18 22:21:00,
2013-06-18 15:26:00,78.8,41.0,29.83,SSE,163,4.9,7.2,26,0.00,,CLR,0.00,VWS V14.01,2013-06-18 22:26:00,
2013-06-18 15:32:00,78.6,40.9,29.83,SSW,192,5.4,8.1,26,0.00,,CLR,0.00,VWS V14.01,2013-06-18 22:32:00,
2013-06-18 15:37:00,78.4,42.7,29.83,WSW,249,6.3,6.3,28,0.00,,CLR,0.00,VWS V14.01,2013-06-18 22:37:00,
2013-06-18 15:43:00,78.4,42.7,29.83,SE,140,5.4,10.1,28,0.00,,CLR,0.00,VWS V14.01,2013-06-18 22:43:00,
2013-06-18 15:49:00,78.6,41.9,29.83,SE,142,8.7,8.7,27,0.00,,CLR,0.00,VWS V14.01,2013-06-18 22:49:00,
2013-06-18 15:54:00,78.2,41.5,29.83,SE,142,4.9,8.1,27,0.00,,CLR,0.00,VWS V14.01,2013-06-18 22:54:00,
2013-06-18 15:59:00,79.1,41.3,29.83,SE,135,8.7,8.7,26,0.00,,CLR,0.00,VWS V14.01,2013-06-18 22:59:00,
2013-06-18 16:04:00,78.8,40.0,29.80,South,180,6.3,8.3,25,0.00,,CLR,0.00,VWS V14.01,2013-06-18 23:04:00,
2013-06-18 16:10:00,79.0,39.1,29.80,SSE,149,5.4,10.1,24,0.00,,CLR,0.00,VWS V14.01,2013-06-18 23:10:00,
2013-06-18 16:15:00,78.6,40.9,29.80,South,182,4.0,6.3,26,0.00,,CLR,0.00,VWS V14.01,2013-06-18 23:15:00,
2013-06-18 16:21:00,79.1,40.3,29.80,SE,129,8.1,8.1,25,0.00,,CLR,0.00,VWS V14.01,2013-06-18 23:21:00,
2013-06-18 16:26:00,79.0,39.1,29.80,SSW,196,5.4,6.3,24,0.00,,CLR,0.00,VWS V14.01,2013-06-18 23:26:00,
2013-06-18 16:32:00,78.8,37.9,29.80,SSW,195,5.4,7.6,23,0.00,,CLR,0.00,VWS V14.01,2013-06-18 23:32:00,
2013-06-18 16:37:00,78.6,37.7,29.80,SSW,195,3.6,6.3,23,0.00,,CLR,0.00,VWS V14.01,2013-06-18 23:37:00,
2013-06-18 16:42:00,78.4,38.7,29.80,SSE,147,6.3,6.3,24,0.00,,CLR,0.00,VWS V14.01,2013-06-18 23:42:00,
2013-06-18 16:48:00,78.2,38.5,29.80,SSW,202,5.8,5.8,24,0.00,,CLR,0.00,VWS V14.01,2013-06-18 23:48:00,
2013-06-18 16:53:00,78.1,38.4,29.80,SW,214,3.1,6.3,24,0.00,,CLR,0.00,VWS V14.01,2013-06-18 23:53:00,
2013-06-18 16:59:00,78.4,38.7,29.80,SSW,205,2.7,4.9,24,0.00,,CLR,0.00,VWS V14.01,2013-06-18 23:59:00,
2013-06-18 17:04:00,79.1,37.1,29.80,SSW,197,5.8,5.8,22,0.00,,CLR,0.00,VWS V14.01,2013-06-19 00:04:00,
2013-06-18 17:10:00,79.0,36.9,29.80,SSW,200,5.4,7.6,22,0.00,,CLR,0.00,VWS V14.01,2013-06-19 00:10:00,
2013-06-18 17:16:00,79.1,37.1,29.80,SE,130,4.0,7.2,22,0.00,,CLR,0.00,VWS V14.01,2013-06-19 00:16:00,
2013-06-18 17:21:00,79.3,37.2,29.77,SSE,151,5.4,5.4,22,0.00,,CLR,0.00,VWS V14.01,2013-06-19 00:21:00,
2013-06-18 17:26:00,79.1,37.1,29.77,East,90,5.4,7.6,22,0.00,,CLR,0.00,VWS V14.01,2013-06-19 00:26:00,
2013-06-18 17:31:00,79.5,36.2,29.77,SSW,194,5.4,5.8,21,0.00,,CLR,0.00,VWS V14.01,2013-06-19 00:31:00,
2013-06-18 17:37:00,79.3,37.2,29.77,SE,140,5.8,5.8,22,0.00,,CLR,0.00,VWS V14.01,2013-06-19 00:37:00,
2013-06-18 17:42:00,79.3,37.2,29.77,SSE,150,4.9,6.3,22,0.00,,CLR,0.00,VWS V14.01,2013-06-19 00:42:00,
2013-06-18 17:48:00,79.5,37.4,29.77,SE,141,2.7,5.4,22,0.00,,CLR,0.00,VWS V14.01,2013-06-19 00:48:00,
2013-06-18 17:53:00,80.2,38.0,29.77,SW,231,4.0,4.9,22,0.00,,CLR,0.00,VWS V14.01,2013-06-19 00:53:00,
2013-06-18 17:59:00,79.1,37.1,29.77,West,260,4.0,8.1,22,0.00,,CLR,0.00,VWS V14.01,2013-06-19 00:59:00,
2013-06-18 18:05:00,77.9,38.2,29.77,WNW,293,8.3,8.3,24,0.00,,CLR,0.00,VWS V14.01,2013-06-19 01:05:00,
2013-06-18 18:10:00,76.4,38.0,29.77,West,281,3.1,8.7,25,0.00,,CLR,0.00,VWS V14.01,2013-06-19 01:10:00,
2013-06-18 18:16:00,77.5,39.0,29.77,West,275,5.4,5.4,25,0.00,,CLR,0.00,VWS V14.01,2013-06-19 01:16:00,
2013-06-18 18:21:00,77.3,36.7,29.77,WSW,256,2.7,6.3,23,0.00,,CLR,0.00,VWS V14.01,2013-06-19 01:21:00,
2013-06-18 18:26:00,77.0,36.4,29.77,West,281,3.1,3.1,23,0.00,,CLR,0.00,VWS V14.01,2013-06-19 01:26:00,
2013-06-18 18:31:00,77.3,34.4,29.77,West,265,2.7,4.9,21,0.00,,CLR,0.00,VWS V14.01,2013-06-19 01:31:00,
2013-06-18 18:37:00,77.0,34.1,29.77,SSW,194,3.1,6.3,21,0.00,,CLR,0.00,VWS V14.01,2013-06-19 01:37:00,
2013-06-18 18:42:00,77.3,34.4,29.77,West,280,3.6,4.0,21,0.00,,CLR,0.00,VWS V14.01,2013-06-19 01:42:00,
2013-06-18 18:48:00,76.8,34.0,29.77,SSW,203,4.0,4.0,21,0.00,,CLR,0.00,VWS V14.01,2013-06-19 01:48:00,
2013-06-18 18:53:00,77.3,34.4,29.77,NW,324,4.0,5.4,21,0.00,,CLR,0.00,VWS V14.01,2013-06-19 01:53:00,
2013-06-18 18:59:00,77.2,34.2,29.77,NNW,340,3.6,5.8,21,0.00,,CLR,0.00,VWS V14.01,2013-06-19 01:59:00,
2013-06-18 19:04:00,76.6,35.0,29.80,NW,325,0.0,4.9,22,0.00,,CLR,0.00,VWS V14.01,2013-06-19 02:04:00,
2013-06-18 19:09:00,76.8,34.0,29.80,NW,311,0.0,4.5,21,0.00,,CLR,0.00,VWS V14.01,2013-06-19 02:09:00,
2013-06-18 19:15:00,75.9,34.4,29.80,NW,326,4.9,5.4,22,0.00,,CLR,0.00,VWS V14.01,2013-06-19 02:15:00,
2013-06-18 19:20:00,75.4,32.8,29.80,WSW,243,3.6,4.0,21,0.00,,CLR,0.00,VWS V14.01,2013-06-19 02:20:00,
2013-06-18 19:26:00,74.6,33.3,29.80,WNW,302,5.4,6.3,22,0.00,,CLR,0.00,VWS V14.01,2013-06-19 02:26:00,
2013-06-18 19:31:00,75.0,32.5,29.80,WNW,289,0.0,2.2,21,0.00,,CLR,0.00,VWS V14.01,2013-06-19 02:31:00,
2013-06-18 19:37:00,75.0,33.6,29.80,North,3,5.4,5.4,22,0.00,,CLR,0.00,VWS V14.01,2013-06-19 02:37:00,
2013-06-18 19:42:00,75.0,41.5,29.80,SE,127,0.0,0.0,30,0.00,,CLR,0.00,VWS V14.01,2013-06-19 02:42:00,
2013-06-18 19:48:00,73.7,42.1,29.77,SSW,194,0.0,2.7,32,0.00,,CLR,0.00,VWS V14.01,2013-06-19 02:48:00,
2013-06-18 19:54:00,73.2,43.2,29.77,SSW,194,2.7,3.1,34,0.00,,CLR,0.00,VWS V14.01,2013-06-19 02:54:00,
2013-06-18 19:59:00,71.8,37.8,29.77,West,274,4.0,6.3,29,0.00,,CLR,0.00,VWS V14.01,2013-06-19 02:59:00,
2013-06-18 20:05:00,71.4,38.4,29.80,NW,316,4.9,5.8,30,0.00,,CLR,0.00,VWS V14.01,2013-06-19 03:05:00,
2013-06-18 20:11:00,70.7,38.6,29.80,NNW,335,3.1,4.0,31,0.00,,CLR,0.00,VWS V14.01,2013-06-19 03:11:00,
2013-06-18 20:16:00,70.7,38.6,29.80,WNW,286,4.9,5.8,31,0.00,,CLR,0.00,VWS V14.01,2013-06-19 03:16:00,
2013-06-18 20:22:00,70.5,39.2,29.80,NW,310,3.6,3.6,32,0.00,,CLR,0.00,VWS V14.01,2013-06-19 03:22:00,
2013-06-18 20:27:00,70.1,38.9,29.80,WNW,294,2.2,3.1,32,0.00,,CLR,0.00,VWS V14.01,2013-06-19 03:27:00,
2013-06-18 20:32:00,70.0,38.8,29.80,NNW,329,2.7,3.6,32,0.00,,CLR,0.00,VWS V14.01,2013-06-19 03:32:00,
2013-06-18 20:37:00,69.8,38.6,29.80,WNW,291,3.6,3.6,32,0.00,,CLR,0.00,VWS V14.01,2013-06-19 03:37:00,
2013-06-18 20:43:00,69.6,39.2,29.80,NW,326,3.1,3.1,33,0.00,,CLR,0.00,VWS V14.01,2013-06-19 03:43:00,
2013-06-18 20:48:00,69.2,39.7,29.80,NW,307,3.1,3.1,34,0.00,,CLR,0.00,VWS V14.01,2013-06-19 03:48:00,
2013-06-18 20:54:00,69.1,40.3,29.80,NW,307,3.1,5.4,35,0.00,,CLR,0.00,VWS V14.01,2013-06-19 03:54:00,
2013-06-18 20:59:00,68.9,40.9,29.80,West,266,5.4,5.4,36,0.00,,CLR,0.00,VWS V14.01,2013-06-19 03:59:00,
2013-06-18 21:01:00,68.7,40.7,29.80,WNW,302,4.5,5.4,36,0.00,,CLR,0.00,VWS V14.01,2013-06-19 04:01:00,
2013-06-18 21:02:00,68.7,41.4,29.80,WNW,286,3.1,4.5,37,0.00,,CLR,0.00,VWS V14.01,2013-06-19 04:02:00,
2013-06-18 21:04:00,68.5,41.9,29.80,West,267,5.8,5.8,38,0.00,,CLR,0.00,VWS V14.01,2013-06-19 04:04:00,
2013-06-18 21:07:00,68.3,41.8,29.80,WNW,296,4.9,4.9,38,0.00,,CLR,0.00,VWS V14.01,2013-06-19 04:07:00,
2013-06-18 21:10:00,68.2,43.0,29.80,WNW,295,3.1,3.6,40,0.00,,CLR,0.00,VWS V14.01,2013-06-19 04:10:00,
2013-06-18 21:15:00,68.2,43.6,29.80,WNW,295,2.2,3.6,41,0.00,,CLR,0.00,VWS V14.01,2013-06-19 04:15:00,
2013-06-18 21:21:00,67.8,43.9,29.80,WNW,282,3.1,4.0,42,0.00,,CLR,0.00,VWS V14.01,2013-06-19 04:21:00,
2013-06-18 21:26:00,67.8,43.9,29.80,West,270,2.7,3.6,42,0.00,,CLR,0.00,VWS V14.01,2013-06-19 04:26:00,
2013-06-18 21:31:00,67.6,44.3,29.80,WNW,293,3.6,4.0,43,0.00,,CLR,0.00,VWS V14.01,2013-06-19 04:31:00,
2013-06-18 21:36:00,67.4,44.2,29.80,WNW,292,3.1,3.6,43,0.00,,CLR,0.00,VWS V14.01,2013-06-19 04:36:00,
2013-06-18 21:41:00,67.4,44.8,29.80,NW,313,0.0,0.0,44,0.00,,CLR,0.00,VWS V14.01,2013-06-19 04:41:00,
2013-06-18 21:47:00,67.3,44.0,29.80,NW,320,0.0,0.0,43,0.00,,CLR,0.00,VWS V14.01,2013-06-19 04:47:00,
2013-06-18 21:53:00,67.1,44.5,29.80,NW,320,0.0,0.0,44,0.00,,CLR,0.00,VWS V14.01,2013-06-19 04:53:00,
2013-06-18 21:58:00,66.9,44.3,29.80,NW,320,0.0,0.0,44,0.00,,CLR,0.00,VWS V14.01,2013-06-19 04:58:00,
2013-06-18 22:04:00,66.9,44.3,29.80,NW,322,3.1,3.1,44,0.00,,CLR,0.00,VWS V14.01,2013-06-19 05:04:00,
2013-06-18 22:10:00,66.5,44.0,29.80,NNW,340,0.0,0.0,44,0.00,,CLR,0.00,VWS V14.01,2013-06-19 05:10:00,
2013-06-18 22:15:00,66.5,44.0,29.80,NNW,341,0.0,0.0,44,0.00,,CLR,0.00,VWS V14.01,2013-06-19 05:15:00,
2013-06-18 22:21:00,66.4,43.8,29.80,NNW,341,0.0,0.0,44,0.00,,CLR,0.00,VWS V14.01,2013-06-19 05:21:00,
2013-06-18 22:26:00,66.4,44.4,29.80,NE,50,0.0,0.0,45,0.00,,CLR,0.00,VWS V14.01,2013-06-19 05:26:00,
2013-06-18 22:32:00,66.4,48.7,29.80,ESE,112,0.0,0.0,53,0.00,,CLR,0.00,VWS V14.01,2013-06-19 05:32:00,
2013-06-18 22:37:00,66.2,48.6,29.80,ESE,112,0.0,0.0,53,0.00,,CLR,0.00,VWS V14.01,2013-06-19 05:37:00,
2013-06-18 22:43:00,65.8,48.2,29.80,ESE,112,0.0,0.0,53,0.00,,CLR,0.00,VWS V14.01,2013-06-19 05:43:00,
2013-06-18 22:48:00,65.8,50.2,29.80,ESE,113,0.0,2.7,57,0.00,,CLR,0.00,VWS V14.01,2013-06-19 05:48:00,
2013-06-18 22:53:00,65.6,50.9,29.80,ESE,113,0.0,0.0,59,0.00,,CLR,0.00,VWS V14.01,2013-06-19 05:53:00,
2013-06-18 22:59:00,65.5,51.2,29.80,ESE,113,0.0,0.0,60,0.00,,CLR,0.00,VWS V14.01,2013-06-19 05:59:00,
2013-06-18 23:04:00,65.3,51.5,29.80,ESE,113,0.0,0.0,61,0.00,,CLR,0.00,VWS V14.01,2013-06-19 06:04:00,
2013-06-18 23:09:00,65.1,52.2,29.80,SE,124,3.1,3.1,63,0.00,,CLR,0.00,VWS V14.01,2013-06-19 06:09:00,
2013-06-18 23:14:00,64.9,52.5,29.80,ESE,121,2.7,2.7,64,0.00,,CLR,0.00,VWS V14.01,2013-06-19 06:14:00,
2013-06-18 23:20:00,64.7,52.3,29.80,ESE,121,0.0,0.0,64,0.00,,CLR,0.00,VWS V14.01,2013-06-19 06:20:00,
2013-06-18 23:25:00,64.7,51.9,29.80,ESE,121,0.0,0.0,63,0.00,,CLR,0.00,VWS V14.01,2013-06-19 06:25:00,
2013-06-18 23:30:00,64.6,51.7,29.80,ESE,121,0.0,0.0,63,0.00,,CLR,0.00,VWS V14.01,2013-06-19 06:30:00,
2013-06-18 23:35:00,64.4,51.5,29.80,ESE,121,0.0,0.0,63,0.00,,CLR,0.00,VWS V14.01,2013-06-19 06:35:00,
2013-06-18 23:40:00,64.2,51.4,29.80,ESE,121,0.0,0.0,63,0.00,,CLR,0.00,VWS V14.01,2013-06-19 06:40:00,
2013-06-18 23:46:00,64.2,51.8,29.80,ESE,121,0.0,0.0,64,0.00,,CLR,0.00,VWS V14.01,2013-06-19 06:46:00,
2013-06-18 23:52:00,64.0,52.0,29.80,ESE,121,0.0,0.0,65,0.00,,CLR,0.00,VWS V14.01,2013-06-19 06:52:00,
2013-06-18 23:57:00,64.0,52.0,29.80,ESE,121,0.0,0.0,65,0.00,,CLR,0.00,VWS V14.01,2013-06-19 06:57:00,